Location: Newark
(45.5000°N, 11.4167°E)
Time: 05:48:46
(UTC+00:00)

Explorer 11/Cluster Stage 4 - Pass Details

Date: 21 August 2019
Orbit: 467 x 1260 km, 28.8° (Epoch: 14 September)

Event Time Altitude Azimuth Distance (km) Brightness Sun altitude
Rises 13:34:10 0° 249° (WSW) 4,127 11.0 45.8°
Reaches altitude 10° 13:38:10 10° 232° (SW) 3,070 10.7 45.2°
Maximum altitude 13:43:02 18° 193° (SSW) 2,351 9.8 44.5°
Drops below altitude 10° 13:47:26 10° 152° (SSE) 2,736 9.5 43.9°
Sets 13:50:44 0° 134° (SE) 3,527 9.8 43.4°
